sat.trackr.live / text

‹ back to catalog

STARLINK-5041

NORAD 53891 · 2022-119F

PAYLOAD ACTIVE UNKNOWN

§ Identity

Operator
Country
US
Launch date
2022-09-24
Launch site
AFETR
Launch vehicle
Mass (kg)
RCS (m²)

Purposes: comms

External: N2YO · Heavens-Above · Gunter

§ Orbital elements

Epoch: 2026-05-25T04:00:03.998880Z

Period
93.86 min
Inclination
53.2178°
Eccentricity
0.0000985
Mean motion
15.34228342 rev/d
Perigee alt
462.5 km
Apogee alt
463.9 km
Semi-major
6,841.4 km
B*
1.4161e-3
RAAN
335.8668°
Arg perigee
101.3763°
Mean anomaly
159.0278°
Rev number
586

§ Raw data

STARLINK-50411 53891U 22119F   26145.16671295  .00047510  00000+0  14161-2 0  99972 53891  53.2178 335.8668 0000985 101.3763 159.0278 15.34228342  5861

JSON: /api/v1/satellites/53891 · /tle

For live sub-satellite position, see the globe view (requires WebGL).

§ Visibility from observer

Set your observer location to see the next 7 days of passes ≥ 10°. The values pass through the URL so the page stays shareable.

No JS? Fill the form by hand. The geolocation button needs JavaScript.